Location: Chicago
(41.8500°N, 87.6500°W)
Time: 07:01:45
(UTC-06:00)

Tiangong 1 - Visible Passes

Search period start: 23 November 2017 00:00
Search period end: 03 December 2017 00:00
Orbit: 284 x 308 km, 42.8° (Epoch: 23 November)

Date Brightness Start Highest point End Pass type
(mag) Time Alt. Az. Time Alt. Az. Time Alt. Az.
23 Nov 3.4 18:09:06 10° S 18:09:26 12° S 18:09:26 12° S visible
24 Nov 3.0 18:14:51 10° SW 18:15:50 18° SSW 18:15:50 18° SSW visible
25 Nov 3.0 18:20:54 10° WSW 18:22:02 22° SW 18:22:02 22° SW visible
26 Nov 2.7 16:53:15 10° SSW 16:55:09 18° SSE 16:57:03 10° ESE visible
26 Nov 3.4 18:27:03 10° WSW 18:28:02 20° WSW 18:28:02 20° WSW visible
27 Nov 1.8 16:58:44 10° SW 17:01:07 32° SSE 17:03:29 10° E visible
27 Nov 3.8 18:33:09 10° W 18:33:51 16° W 18:33:51 16° W visible
28 Nov 0.9 17:04:26 10° WSW 17:06:59 56° SSE 17:09:08 13° E visible
28 Nov 4.1 18:39:08 10° W 18:39:29 13° W 18:39:29 13° W visible
29 Nov 0.5 17:10:10 10° WSW 17:12:46 87° SSE 17:14:39 16° E visible
29 Nov 4.4 18:44:57 10° W 18:45:00 10° W 18:45:00 10° W visible
30 Nov 0.5 17:15:50 10° W 17:18:25 73° N 17:20:01 20° ENE visible
01 Dec 0.5 17:21:23 10° W 17:23:57 67° N 17:25:17 24° E visible
02 Dec 0.4 17:26:45 10° W 17:29:19 75° N 17:30:27 29° E visible
